Location: *
(50.6089°N, 2.2719°E)
Time: 02:30:15
(UTC+00:00)

Cosmos 2084 Rocket - Pass Details

Date: 18 October 2019
Orbit: 572 x 609 km, 62.8° (Epoch: 21 November)

Event Time Altitude Azimuth Distance (km) Brightness Sun altitude
Rises 18:01:57 0° 315° (NW) 2,878 7.7 -11.6°
Reaches altitude 10° 18:04:22 10° 324° (NW) 1,969 6.6 -12.0°
Maximum altitude 18:08:32 38° 33° (NNE) 936 4.2 -12.6°
Enters shadow 18:11:03 20° 90° (E) 1,402 4.7 -13.0°
